GW1008 Weather Reports


Display with metric or nautical units.
time (UTC)temp
F
wind
direction
speed
MPH
gust
MPH
rain 1hr
in
rain 24hr
in
rain mn
in
humidity
%
barometer
mb
20260505152512 46 319 1.0 8.0 0.00 0.07 0.05 56 1017.6
20260505152018 46 0 0.0 8.0 0.00 0.07 0.05 58 1017.6
20260505151528 46 0 0.0 7.0 0.00 0.07 0.05 57 1017.6
20260505151013 46 0 0.0 5.0 0.00 0.07 0.05 58 1017.6
20260505150517 46 0 0.0 4.0 0.00 0.07 0.05 58 1017.6
20260505140514 45 0 0.0 10.0 0.00 0.07 0.05 64 1017.4
20260505125007 46 0 0.0 5.0 0.00 0.07 0.05 66 1017.2
20260505124528 46 60 1.0 7.0 0.00 0.07 0.05 68 1017.2
20260505124011 46 0 2.0 7.0 0.00 0.07 0.05 67 1017.2
20260505123511 46 0 0.0 4.0 0.00 0.07 0.05 68 1017.1
20260505123044 46 0 0.0 5.0 0.00 0.07 0.05 74 1017.2
20260505122508 45 0 1.0 5.0 0.00 0.07 0.05 73 1017.3
20260505122009 45 0 0.0 8.0 0.00 0.07 0.05 74 1017.5
20260505121534 44 0 1.0 9.0 0.00 0.07 0.05 76 1017.5
20260505121011 44 0 1.0 9.0 0.00 0.07 0.05 74 1017.4
20260505120515 44 0 1.0 8.0 0.00 0.07 0.05 75 1017.5
20260505120041 44 82 0.0 12.0 0.00 0.07 0.05 73 1017.5
20260505115512 45 305 2.0 12.0 0.00 0.07 0.05 70 1017.3
20260505115016 46 0 2.0 12.0 0.00 0.07 0.05 71 1017.2
20260505114541 46 0 0.0 12.0 0.00 0.07 0.05 68 1017.1
20260505114010 46 32 0.0 12.0 0.00 0.07 0.05 70 1017.2
20260505113508 46 339 1.0 8.0 0.00 0.07 0.05 70 1017.1
20260505113029 46 342 1.0 9.0 0.00 0.07 0.05 73 1017.2
20260505112511 45 74 0.0 9.0 0.00 0.07 0.05 74 1017.2
20260505112011 45 73 0.0 8.0 0.00 0.07 0.05 77 1017.2
20260505111528 43 0 1.0 9.0 0.00 0.07 0.05 77 1017.2
20260505111011 43 0 2.0 9.0 0.00 0.07 0.05 78 1017.2
20260505110511 42 83 0.0 5.0 0.00 0.07 0.05 81 1017.3
20260505102010 43 0 0.0 12.0 0.01 0.07 0.05 73 1017.1
20260505101526 43 280 0.0 11.0 0.01 0.07 0.05 72 1017.1
20260505101009 43 341 2.0 11.0 0.01 0.07 0.05 73 1016.9
20260505100512 43 336 2.0 11.0 0.01 0.07 0.05 73 1017.1
20260505100031 44 326 1.0 11.0 0.01 0.07 0.05 75 1017.0
20260505095510 44 34 1.0 8.0 0.01 0.07 0.05 78 1016.9
20260505095015 43 0 1.0 6.0 0.01 0.07 0.05 82 1016.7
20260505094530 42 0 0.0 4.0 0.00 0.06 0.04 84 1016.9
20260505094010 42 0 0.0 13.0 0.00 0.06 0.04 81 1016.8
20260505093511 42 59 0.0 13.0 0.00 0.06 0.04 80 1016.8
20260505093035 42 350 4.0 13.0 0.00 0.06 0.04 78 1016.8
20260505092512 43 0 2.0 10.0 0.00 0.06 0.04 77 1016.6
20260505092013 43 348 0.0 8.0 0.00 0.06 0.04 77 1016.7
20260505091540 42 0 0.0 8.0 0.00 0.06 0.04 78 1016.6
20260505091012 42 62 1.0 8.0 0.00 0.06 0.04 79 1016.6
20260505090509 42 352 0.0 10.0 0.00 0.06 0.04 80 1016.6
20260505090043 42 0 1.0 10.0 0.00 0.06 0.04 81 1016.4
20260505085510 42 349 1.0 10.0 0.00 0.06 0.04 80 1016.4
20260505085012 42 69 1.0 11.0 0.00 0.06 0.04 81 1016.2
20260505084528 41 57 2.0 14.0 0.01 0.06 0.04 81 1016.2
20260505084012 41 323 0.0 14.0 0.01 0.06 0.04 83 1016.1
20260505083517 41 0 1.0 14.0 0.01 0.06 0.04 84 1016.1
20260505083028 41 335 2.0 13.0 0.01 0.06 0.04 84 1016.1
20260505082511 41 0 2.0 11.0 0.02 0.06 0.04 85 1016.2
20260505082008 40 336 1.0 10.0 0.02 0.06 0.04 86 1016.1
20260505081538 40 360 1.0 8.0 0.02 0.06 0.04 87 1016.0
20260505081009 40 0 0.0 8.0 0.02 0.06 0.04 87 1016.1
20260505080509 40 0 0.0 8.0 0.02 0.06 0.04 86 1016.1
20260505080046 40 77 1.0 8.0 0.02 0.06 0.04 86 1016.0
20260505075511 40 0 0.0 7.0 0.03 0.06 0.04 86 1015.9
20260505075011 41 82 1.0 12.0 0.03 0.06 0.04 86 1015.8
20260505074530 41 0 1.0 12.0 0.03 0.05 0.03 86 1015.7
20260505074011 41 81 0.0 9.0 0.03 0.05 0.03 86 1015.7
20260505073512 41 0 0.0 9.0 0.03 0.05 0.03 86 1015.6
20260505073034 41 92 1.0 10.0 0.03 0.05 0.03 85 1015.5
20260505072509 41 71 2.0 10.0 0.02 0.04 0.02 85 1015.5
20260505072015 42 69 1.0 9.0 0.02 0.04 0.02 85 1015.4
20260505071529 42 0 0.0 6.0 0.02 0.04 0.02 85 1015.3
20260505071009 42 0 0.0 6.0 0.02 0.04 0.02 85 1015.4
20260505070511 41 16 0.0 3.0 0.02 0.04 0.02 84 1015.3
20260505070028 41 0 0.0 6.0 0.01 0.03 0.01 83 1015.2
20260505065510 42 0 0.0 6.0 0.01 0.03 0.01 82 1015.1
20260505065011 42 41 0.0 5.0 0.01 0.03 0.01 82 1015.0
20260505064529 42 302 0.0 7.0 0.00 0.02 0.00 82 1015.0
20260505064013 42 0 0.0 7.0 0.00 0.02 0.00 81 1015.0
20260505063518 42 293 0.0 7.0 0.00 0.02 0.00 81 1014.9
20260505063028 42 0 0.0 5.0 0.00 0.02 0.00 81 1014.9
20260505062512 42 0 0.0 2.0 0.00 0.02 0.00 82 1014.7
20260505062012 42 0 0.0 2.0 0.00 0.02 0.00 81 1014.7
20260505061529 42 0 0.0 8.0 0.00 0.02 0.00 81 1014.5
20260505061015 42 0 0.0 8.0 0.00 0.02 0.00 80 1014.5
20260505060511 42 0 0.0 7.0 0.00 0.02 0.00 80 1014.4
20260505060029 42 0 0.0 9.0 0.00 0.02 0.00 81 1014.3
20260505055515 42 300 1.0 9.0 0.00 0.02 0.00 81 1014.2
20260505055012 41 0 1.0 6.0 0.00 0.02 0.00 81 1014.2
20260505054530 41 274 0.0 6.0 0.00 0.02 0.00 83 1014.0
20260505054011 41 0 0.0 2.0 0.00 0.02 0.00 83 1014.0
20260505053511 41 0 0.0 1.0 0.00 0.02 0.00 84 1014.0
20260505053030 40 0 0.0 6.0 0.00 0.02 0.00 84 1014.0
20260505052517 39 265 0.0 6.0 0.00 0.02 0.00 84 1014.0
20260505052010 39 0 0.0 0.0 0.00 0.02 0.00 84 1014.1
20260505051528 39 0 0.0 2.0 0.00 0.02 0.00 85 1014.0
20260505051011 39 0 0.0 2.0 0.00 0.02 0.00 85 1014.0
20260505050513 39 0 0.0 2.0 0.00 0.02 0.00 85 1014.0
20260505041545 38 0 0.0 0.0 0.00 0.02 0.00 85 1013.8
20260505041011 38 0 0.0 0.0 0.00 0.02 0.00 83 1013.8
20260505040513 38 0 0.0 0.0 0.00 0.02 0.00 82 1013.9
20260505040030 38 0 0.0 0.0 0.00 0.02 0.00 81 1013.8
20260505035511 39 0 0.0 0.0 0.00 0.02 0.00 82 1013.8
20260505035011 39 0 0.0 0.0 0.00 0.02 0.00 81 1013.8
20260505034528 40 0 0.0 0.0 0.00 0.02 0.00 81 1013.8
20260505034013 40 0 0.0 0.0 0.00 0.02 0.00 82 1013.7
20260505033509 40 0 0.0 0.0 0.00 0.02 0.00 81 1013.7
20260505033030 41 0 0.0 0.0 0.00 0.02 0.00 81 1013.6
20260505032514 41 0 0.0 0.0 0.00 0.02 0.00 82 1013.6
20260505032011 41 0 0.0 0.0 0.00 0.02 0.00 82 1013.7
20260505031536 41 0 0.0 0.0 0.00 0.02 0.00 82 1013.8
20260505031011 42 0 0.0 0.0 0.00 0.02 0.00 83 1013.7
20260505030512 42 0 0.0 0.0 0.00 0.02 0.00 83 1013.7
20260505030035 42 0 0.0 0.0 0.00 0.02 0.00 83 1013.6
20260505025511 42 0 0.0 0.0 0.00 0.02 0.00 83 1013.7
20260505025011 42 0 0.0 0.0 0.00 0.02 0.00 83 1013.7
20260505024530 42 0 0.0 0.0 0.00 0.02 0.00 83 1013.7
20260505024013 42 0 0.0 0.0 0.00 0.02 0.00 84 1013.6
20260505023511 42 0 0.0 1.0 0.00 0.02 0.00 84 1013.7
20260505023036 42 0 0.0 1.0 0.00 0.02 0.00 84 1013.8
20260505022515 42 0 0.0 1.0 0.00 0.02 0.00 84 1013.8
20260505022011 42 0 0.0 3.0 0.00 0.02 0.00 84 1013.8
20260505021529 42 0 0.0 4.0 0.00 0.02 0.00 84 1013.8
20260505021008 42 287 0.0 4.0 0.00 0.02 0.00 85 1013.9
20260505020511 43 0 0.0 4.0 0.00 0.02 0.00 85 1013.9
20260505020034 42 0 0.0 2.0 0.00 0.02 0.00 86 1013.8
20260505015517 42 0 0.0 3.0 0.00 0.02 0.00 87 1013.9
20260505015011 42 287 0.0 3.0 0.00 0.02 0.00 87 1013.9
20260505014529 42 0 0.0 3.0 0.00 0.02 0.00 87 1013.8
20260505014011 42 0 0.0 0.0 0.00 0.02 0.00 87 1013.8
20260505013511 42 0 0.0 0.0 0.00 0.02 0.00 87 1013.6
20260505013028 42 0 0.0 0.0 0.00 0.02 0.00 88 1013.6
20260505012514 41 0 0.0 0.0 0.00 0.02 0.00 88 1013.6
20260505012031 41 0 0.0 0.0 0.00 0.02 0.00 88 1013.7
20260505011530 41 0 0.0 0.0 0.00 0.02 0.00 87 1013.7
20260505011011 41 0 0.0 0.0 0.00 0.02 0.00 87 1013.7
20260505010508 40 0 0.0 0.0 0.00 0.02 0.00 86 1013.7
20260505010026 40 0 0.0 0.0 0.00 0.02 0.00 86 1013.6
20260505005511 40 0 0.0 0.0 0.00 0.02 0.00 86 1013.5
20260505005010 40 0 0.0 0.0 0.00 0.02 0.00 86 1013.4
20260505004536 40 0 0.0 0.0 0.00 0.02 0.00 85 1013.5
20260505004007 40 0 0.0 0.0 0.00 0.02 0.00 84 1013.5
20260505003512 40 0 0.0 0.0 0.00 0.02 0.00 84 1013.5
20260505003029 41 0 0.0 0.0 0.00 0.02 0.00 85 1013.5
20260505002510 40 0 0.0 0.0 0.00 0.02 0.00 84 1013.5
20260505002008 41 0 0.0 0.0 0.00 0.02 0.00 84 1013.5
20260505001527 41 0 0.0 0.0 0.00 0.02 0.00 84 1013.5
20260505001010 41 0 0.0 0.0 0.00 0.02 0.00 84 1013.4
20260505000509 41 0 0.0 0.0 0.00 0.02 0.00 84 1013.4
20260505000031 41 0 0.0 0.0 0.00 0.02 0.00 84 1013.5
20260504235507 41 0 0.0 0.0 0.00 0.02 0.00 84 1013.6
20260504235010 41 0 0.0 0.0 0.00 0.02 0.00 85 1013.6
20260504234528 42 0 0.0 0.0 0.00 0.02 0.00 84 1013.7
20260504234008 42 0 0.0 0.0 0.00 0.02 0.00 83 1013.6
20260504233511 42 0 0.0 0.0 0.00 0.02 0.00 84 1013.6
20260504233032 42 0 0.0 0.0 0.00 0.02 0.00 83 1013.7
20260504232508 42 0 0.0 0.0 0.00 0.02 0.00 83 1013.6
20260504232011 42 0 0.0 0.0 0.00 0.02 0.00 83 1013.8
20260504231527 42 0 0.0 0.0 0.00 0.02 0.00 83 1013.7
20260504231007 43 0 0.0 0.0 0.00 0.02 0.00 83 1013.6
20260504230507 43 0 0.0 0.0 0.00 0.02 0.00 83 1013.6
20260504230027 43 0 0.0 0.0 0.00 0.02 0.00 83 1013.6
20260504225510 43 0 0.0 0.0 0.00 0.02 0.02 82 1013.5
20260504225009 43 0 0.0 0.0 0.00 0.02 0.02 82 1013.6
20260504224529 43 0 0.0 0.0 0.00 0.02 0.02 82 1013.6
20260504224008 44 0 0.0 0.0 0.01 0.02 0.02 81 1013.7
20260504223510 44 0 0.0 0.0 0.01 0.02 0.02 81 1013.7
20260504223030 44 0 0.0 0.0 0.01 0.02 0.02 81 1013.7
20260504222513 44 0 0.0 0.0 0.01 0.02 0.02 81 1013.6
20260504222016 45 0 0.0 0.0 0.01 0.02 0.02 80 1013.6
20260504221534 45 0 0.0 3.0 0.01 0.02 0.02 81 1013.6
20260504221007 45 0 0.0 3.0 0.01 0.02 0.02 81 1013.5
20260504220509 45 0 0.0 1.0 0.01 0.02 0.02 81 1013.7
20260504220028 45 0 0.0 3.0 0.01 0.02 0.02 81 1013.7
20260504215510 46 0 0.0 6.0 0.01 0.02 0.02 81 1013.8
20260504215014 46 275 0.0 6.0 0.01 0.02 0.02 81 1013.8
20260504214528 46 0 0.0 11.0 0.01 0.02 0.02 82 1013.7
20260504214013 46 0 1.0 11.0 0.00 0.01 0.01 81 1013.7
20260504213511 46 0 0.0 7.0 0.00 0.01 0.01 82 1013.8
20260504213045 45 0 0.0 2.0 0.00 0.01 0.01 82 1013.9
20260504212511 45 0 0.0 2.0 0.00 0.01 0.01 82 1013.8
20260504212012 45 0 0.0 2.0 0.00 0.01 0.01 81 1013.9
20260504211525 46 0 0.0 2.0 0.00 0.01 0.01 81 1013.9
20260504211012 46 0 0.0 2.0 0.00 0.01 0.01 81 1013.9
20260504210512 46 0 0.0 2.0 0.00 0.01 0.01 80 1013.8
20260504210030 46 0 0.0 2.0 0.00 0.01 0.01 80 1013.9
20260504205507 47 0 0.0 2.0 0.00 0.01 0.01 80 1013.9
20260504205010 47 0 0.0 4.0 0.00 0.01 0.01 81 1013.8
20260504204530 47 0 0.0 4.0 0.00 0.01 0.01 81 1013.9
20260504204009 47 0 0.0 1.0 0.00 0.01 0.01 81 1014.0
20260504203513 47 0 0.0 0.0 0.00 0.01 0.01 81 1013.9
20260504203033 48 0 0.0 0.0 0.00 0.01 0.01 81 1013.9
20260504202508 48 0 0.0 0.0 0.00 0.01 0.01 81 1013.9
20260504202009 48 0 0.0 0.0 0.00 0.01 0.01 80 1013.9
20260504201532 48 0 0.0 0.0 0.00 0.01 0.01 80 1013.8
20260504201015 48 0 0.0 0.0 0.00 0.01 0.01 79 1013.8
20260504200511 48 0 0.0 0.0 0.00 0.01 0.01 79 1013.6
20260504200027 48 0 0.0 0.0 0.00 0.01 0.01 78 1013.6
20260504195506 49 0 0.0 0.0 0.00 0.01 0.01 78 1013.6
20260504195011 49 0 0.0 0.0 0.00 0.01 0.01 78 1013.6
20260504194530 49 0 0.0 0.0 0.00 0.01 0.01 77 1013.6
20260504194008 49 0 0.0 1.0 0.00 0.01 0.01 77 1013.6
20260504193508 49 0 0.0 3.0 0.00 0.01 0.01 76 1013.5
20260504193034 49 0 0.0 4.0 0.00 0.01 0.01 76 1013.5
20260504192507 49 0 0.0 4.0 0.00 0.01 0.01 76 1013.4
20260504192011 50 0 0.0 1.0 0.01 0.01 0.01 77 1013.4
20260504191529 50 0 0.0 1.0 0.01 0.01 0.01 76 1013.3
20260504191012 50 0 0.0 1.0 0.01 0.01 0.01 76 1013.3
20260504190511 51 0 0.0 1.0 0.01 0.01 0.01 76 1013.2
20260504190029 51 0 0.0 1.0 0.01 0.01 0.01 76 1013.1
20260504185515 51 0 0.0 1.0 0.01 0.01 0.01 76 1013.0
20260504185016 51 0 0.0 1.0 0.01 0.01 0.01 77 1013.1
20260504184528 51 0 0.0 1.0 0.01 0.01 0.01 77 1013.0
20260504184012 51 0 0.0 1.0 0.01 0.01 0.01 76 1013.1
20260504183514 51 0 0.0 1.0 0.01 0.01 0.01 75 1013.1
20260504183030 51 0 0.0 1.0 0.01 0.01 0.01 74 1012.9
20260504182509 51 0 0.0 1.0 0.01 0.01 0.01 73 1013.0
20260504182010 51 0 0.0 1.0 0.00 0.00 0.00 73 1012.9
20260504181529 52 0 0.0 9.0 0.00 0.00 0.00 73 1013.0
20260504181010 52 0 0.0 9.0 0.00 0.00 0.00 73 1012.9
20260504180512 52 0 0.0 4.0 0.00 0.00 0.00 71 1012.9
20260504180030 53 317 0.0 10.0 0.00 0.00 0.00 69 1012.9
20260504175508 53 0 0.0 12.0 0.00 0.00 0.00 66 1013.0
20260504175014 54 0 0.0 12.0 0.00 0.00 0.00 66 1012.9
20260504174528 54 312 1.0 12.0 0.00 0.00 0.00 63 1012.8
20260504174012 55 0 0.0 8.0 0.00 0.00 0.00 63 1012.8
20260504173513 55 0 0.0 8.0 0.00 0.00 0.00 65 1012.8
20260504173037 56 0 1.0 9.0 0.00 0.00 0.00 63 1012.8
20260504172508 56 0 1.0 10.0 0.00 0.00 0.00 62 1012.7
20260504172012 56 0 1.0 10.0 0.00 0.00 0.00 63 1012.8
20260504171528 57 0 0.0 5.0 0.00 0.00 0.00 63 1012.7
20260504171009 57 298 0.0 11.0 0.00 0.00 0.00 61 1012.7
20260504170509 57 276 0.0 11.0 0.00 0.00 0.00 60 1012.8